Year,Month,Day,Hour,Minute,Value (Times are PST for temperature in C)
2016,08,14,00,00,20.40
2016,08,14,00,01,20.40
2016,08,14,00,02,20.40
2016,08,14,00,03,20.40
2016,08,14,00,04,20.40
2016,08,14,00,05,20.40
2016,08,14,00,06,20.40
2016,08,14,00,07,20.40
2016,08,14,00,08,20.40
2016,08,14,00,09,20.40
2016,08,14,00,10,20.40
2016,08,14,00,11,20.40
2016,08,14,00,12,20.30
2016,08,14,00,13,20.40
2016,08,14,00,14,20.30
2016,08,14,00,15,20.30
2016,08,14,00,16,20.30
2016,08,14,00,17,20.30
2016,08,14,00,18,20.30
2016,08,14,00,19,20.30
2016,08,14,00,20,20.30
2016,08,14,00,21,20.30
2016,08,14,00,22,20.30
2016,08,14,00,23,20.30
2016,08,14,00,24,20.30
2016,08,14,00,25,20.30
2016,08,14,00,26,20.30
2016,08,14,00,27,20.30
2016,08,14,00,28,20.30
2016,08,14,00,29,20.30
2016,08,14,00,30,20.30
2016,08,14,00,31,20.30
2016,08,14,00,32,20.30
2016,08,14,00,33,20.30
2016,08,14,00,34,20.40
2016,08,14,00,35,20.40
2016,08,14,00,36,20.40
2016,08,14,00,37,20.40
2016,08,14,00,38,20.40
2016,08,14,00,39,20.40
2016,08,14,00,40,20.40
2016,08,14,00,41,20.40
2016,08,14,00,42,20.40
2016,08,14,00,43,20.40
2016,08,14,00,44,20.40
2016,08,14,00,45,20.40
2016,08,14,00,46,20.40
2016,08,14,00,47,20.40
2016,08,14,00,48,20.40
2016,08,14,00,49,20.40
2016,08,14,00,50,20.40
2016,08,14,00,51,20.40
2016,08,14,00,52,20.40
2016,08,14,00,53,20.30
2016,08,14,00,54,20.30
2016,08,14,00,55,20.30
2016,08,14,00,56,20.30
2016,08,14,00,57,20.30
2016,08,14,00,58,20.20
2016,08,14,00,59,20.20
2016,08,14,01,00,20.20
2016,08,14,01,01,20.20
2016,08,14,01,02,20.10
2016,08,14,01,03,20.10
2016,08,14,01,04,20.10
2016,08,14,01,05,20.00
2016,08,14,01,06,20.00
2016,08,14,01,07,20.00
2016,08,14,01,08,19.90
2016,08,14,01,09,19.90
2016,08,14,01,10,19.90
2016,08,14,01,11,19.90
2016,08,14,01,12,19.90
2016,08,14,01,13,19.90
2016,08,14,01,14,19.90
2016,08,14,01,15,19.90
2016,08,14,01,16,19.90
2016,08,14,01,17,19.90
2016,08,14,01,18,19.90
2016,08,14,01,19,20.00
2016,08,14,01,20,20.00
2016,08,14,01,21,20.10
2016,08,14,01,22,20.10
2016,08,14,01,23,20.10
2016,08,14,01,24,20.10
2016,08,14,01,25,20.20
2016,08,14,01,26,20.10
2016,08,14,01,27,20.20
2016,08,14,01,28,20.10
2016,08,14,01,29,20.10
2016,08,14,01,30,20.10
2016,08,14,01,31,20.10
2016,08,14,01,32,20.10
2016,08,14,01,33,20.10
2016,08,14,01,34,20.00
2016,08,14,01,35,20.00
2016,08,14,01,36,19.90
2016,08,14,01,37,19.90
2016,08,14,01,38,19.90
2016,08,14,01,39,19.90
2016,08,14,01,40,19.80
2016,08,14,01,41,19.80
2016,08,14,01,42,19.80
2016,08,14,01,43,19.80
2016,08,14,01,44,19.70
2016,08,14,01,45,19.70
2016,08,14,01,46,19.70
2016,08,14,01,47,19.70
2016,08,14,01,48,19.60
2016,08,14,01,49,19.60
2016,08,14,01,50,19.60
2016,08,14,01,51,19.60
2016,08,14,01,52,19.60
2016,08,14,01,53,19.50
2016,08,14,01,54,19.50
2016,08,14,01,55,19.50
2016,08,14,01,56,19.50
2016,08,14,01,57,19.40
2016,08,14,01,58,19.40
2016,08,14,01,59,19.40
2016,08,14,02,00,19.40
2016,08,14,02,01,19.40
2016,08,14,02,02,19.30
2016,08,14,02,03,19.30
2016,08,14,02,04,19.30
2016,08,14,02,05,19.30
2016,08,14,02,06,19.20
2016,08,14,02,07,19.20
2016,08,14,02,08,19.20
2016,08,14,02,09,19.20
2016,08,14,02,10,19.10
2016,08,14,02,11,19.10
2016,08,14,02,12,19.10
2016,08,14,02,13,19.00
2016,08,14,02,14,19.00
2016,08,14,02,15,19.00
2016,08,14,02,16,18.90
2016,08,14,02,17,18.90
2016,08,14,02,18,18.90
2016,08,14,02,19,18.80
2016,08,14,02,20,18.80
2016,08,14,02,21,18.80
2016,08,14,02,22,18.80
2016,08,14,02,23,18.70
2016,08,14,02,24,18.70
2016,08,14,02,25,18.70
2016,08,14,02,26,18.70
2016,08,14,02,27,18.70
2016,08,14,02,28,18.70
2016,08,14,02,29,18.70
2016,08,14,02,30,18.70
2016,08,14,02,31,18.70
2016,08,14,02,32,18.70
2016,08,14,02,33,18.70
2016,08,14,02,34,18.70
2016,08,14,02,35,18.70
2016,08,14,02,36,18.70
2016,08,14,02,37,18.70
2016,08,14,02,38,18.70
2016,08,14,02,39,18.70
2016,08,14,02,40,18.80
2016,08,14,02,41,18.80
2016,08,14,02,42,18.70
2016,08,14,02,43,18.70
2016,08,14,02,44,18.70
2016,08,14,02,45,18.70
2016,08,14,02,46,18.70
2016,08,14,02,47,18.70
2016,08,14,02,48,18.70
2016,08,14,02,49,18.70
2016,08,14,02,50,18.60
2016,08,14,02,51,18.60
2016,08,14,02,52,18.60
2016,08,14,02,53,18.60
2016,08,14,02,54,18.50
2016,08,14,02,55,18.50
2016,08,14,02,56,18.50
2016,08,14,02,57,18.40
2016,08,14,02,58,18.40
2016,08,14,02,59,18.40
2016,08,14,03,00,18.40
2016,08,14,03,01,18.40
2016,08,14,03,02,18.50
2016,08,14,03,03,18.50
2016,08,14,03,04,18.50
2016,08,14,03,05,18.50
2016,08,14,03,06,18.50
2016,08,14,03,07,18.50
2016,08,14,03,08,18.50
2016,08,14,03,09,18.60
2016,08,14,03,10,18.60
2016,08,14,03,11,18.60
2016,08,14,03,12,18.60
2016,08,14,03,13,18.60
2016,08,14,03,14,18.50
2016,08,14,03,15,18.50
2016,08,14,03,16,18.50
2016,08,14,03,17,18.60
2016,08,14,03,18,18.50
2016,08,14,03,19,18.50
2016,08,14,03,20,18.50
2016,08,14,03,21,18.50
2016,08,14,03,22,18.50
2016,08,14,03,23,18.50
2016,08,14,03,24,18.50
2016,08,14,03,25,18.50
2016,08,14,03,26,18.40
2016,08,14,03,27,18.50
2016,08,14,03,28,18.50
2016,08,14,03,29,18.50
2016,08,14,03,30,18.50
2016,08,14,03,31,18.50
2016,08,14,03,32,18.60
2016,08,14,03,33,18.60
2016,08,14,03,34,18.60
2016,08,14,03,35,18.60
2016,08,14,03,36,18.60
2016,08,14,03,37,18.60
2016,08,14,03,38,18.60
2016,08,14,03,39,18.60
2016,08,14,03,40,18.60
2016,08,14,03,41,18.60
2016,08,14,03,42,18.70
2016,08,14,03,43,18.70
2016,08,14,03,44,18.70
2016,08,14,03,45,18.70
2016,08,14,03,46,18.70
2016,08,14,03,47,18.70
2016,08,14,03,48,18.60
2016,08,14,03,49,18.60
2016,08,14,03,50,18.60
2016,08,14,03,51,18.60
2016,08,14,03,52,18.60
2016,08,14,03,53,18.60
2016,08,14,03,54,18.60
2016,08,14,03,55,18.60
2016,08,14,03,56,18.60
2016,08,14,03,57,18.60
2016,08,14,03,58,18.60
2016,08,14,03,59,18.60
2016,08,14,04,00,18.60
2016,08,14,04,01,18.60
2016,08,14,04,02,18.60
2016,08,14,04,03,18.60
2016,08,14,04,04,18.60
2016,08,14,04,05,18.60
2016,08,14,04,06,18.60
2016,08,14,04,07,18.60
2016,08,14,04,08,18.60
2016,08,14,04,09,18.60
2016,08,14,04,10,18.60
2016,08,14,04,11,18.50
2016,08,14,04,12,18.50
2016,08,14,04,13,18.50
2016,08,14,04,14,18.50
2016,08,14,04,15,18.50
2016,08,14,04,16,18.50
2016,08,14,04,17,18.50
2016,08,14,04,18,18.50
2016,08,14,04,19,18.50
2016,08,14,04,20,18.50
2016,08,14,04,21,18.50
2016,08,14,04,22,18.50
2016,08,14,04,23,18.50
2016,08,14,04,24,18.50
2016,08,14,04,25,18.50
2016,08,14,04,26,18.50
2016,08,14,04,27,18.50
2016,08,14,04,28,18.50
2016,08,14,04,29,18.50
2016,08,14,04,30,18.60
2016,08,14,04,31,18.60
2016,08,14,04,32,18.60
2016,08,14,04,33,18.60
2016,08,14,04,34,18.60
2016,08,14,04,35,18.60
2016,08,14,04,36,18.60
2016,08,14,04,37,18.60
2016,08,14,04,38,18.60
2016,08,14,04,39,18.60
2016,08,14,04,40,18.60
2016,08,14,04,41,18.60
2016,08,14,04,42,18.60
2016,08,14,04,43,18.60
2016,08,14,04,44,18.60
2016,08,14,04,45,18.50
2016,08,14,04,46,18.50
2016,08,14,04,47,18.60
2016,08,14,04,48,18.50
2016,08,14,04,49,18.60
2016,08,14,04,50,18.60
2016,08,14,04,51,18.60
2016,08,14,04,52,18.60
2016,08,14,04,53,18.60
2016,08,14,04,54,18.60
2016,08,14,04,55,18.60
2016,08,14,04,56,18.70
2016,08,14,04,57,18.70
2016,08,14,04,58,18.70
2016,08,14,04,59,18.70
2016,08,14,05,00,18.70
2016,08,14,05,01,18.70
2016,08,14,05,02,18.60
2016,08,14,05,03,18.60
2016,08,14,05,04,18.60
2016,08,14,05,05,18.60
2016,08,14,05,06,18.60
2016,08,14,05,07,18.60
2016,08,14,05,08,18.60
2016,08,14,05,09,18.50
2016,08,14,05,10,18.50
2016,08,14,05,11,18.50
2016,08,14,05,12,18.50
2016,08,14,05,13,18.50
2016,08,14,05,14,18.40
2016,08,14,05,15,18.40
2016,08,14,05,16,18.40
2016,08,14,05,17,18.40
2016,08,14,05,18,18.40
2016,08,14,05,19,18.40
2016,08,14,05,20,18.40
2016,08,14,05,21,18.40
2016,08,14,05,22,18.40
2016,08,14,05,23,18.40
2016,08,14,05,24,18.40
2016,08,14,05,25,18.40
2016,08,14,05,26,18.40
2016,08,14,05,27,18.40
2016,08,14,05,28,18.40
2016,08,14,05,29,18.30
2016,08,14,05,30,18.40
2016,08,14,05,31,18.30
2016,08,14,05,32,18.30
2016,08,14,05,33,18.30
2016,08,14,05,34,18.30
2016,08,14,05,35,18.30
2016,08,14,05,36,18.30
2016,08,14,05,37,18.30
2016,08,14,05,38,18.20
2016,08,14,05,39,18.20
2016,08,14,05,40,18.20
2016,08,14,05,41,18.20
2016,08,14,05,42,18.20
2016,08,14,05,43,18.20
2016,08,14,05,44,18.20
2016,08,14,05,45,18.20
2016,08,14,05,46,18.20
2016,08,14,05,47,18.20
2016,08,14,05,48,18.20
2016,08,14,05,49,18.20
2016,08,14,05,50,18.20
2016,08,14,05,51,18.20
2016,08,14,05,52,18.20
2016,08,14,05,53,18.20
2016,08,14,05,54,18.20
2016,08,14,05,55,18.20
2016,08,14,05,56,18.20
2016,08,14,05,57,18.20
2016,08,14,05,58,18.20
2016,08,14,05,59,18.20
2016,08,14,06,00,18.20
2016,08,14,06,01,18.20
2016,08,14,06,02,18.20
2016,08,14,06,03,18.30
2016,08,14,06,04,18.30
2016,08,14,06,05,18.30
2016,08,14,06,06,18.30
2016,08,14,06,07,18.40
2016,08,14,06,08,18.40
2016,08,14,06,09,18.40
2016,08,14,06,10,18.40
2016,08,14,06,11,18.40
2016,08,14,06,12,18.40
2016,08,14,06,13,18.40
2016,08,14,06,14,18.50
2016,08,14,06,15,18.50
2016,08,14,06,16,18.40
2016,08,14,06,17,18.40
2016,08,14,06,18,18.40
2016,08,14,06,19,18.40
2016,08,14,06,20,18.40
2016,08,14,06,21,18.40
2016,08,14,06,22,18.40
2016,08,14,06,23,18.40
2016,08,14,06,24,18.30
2016,08,14,06,25,18.30
2016,08,14,06,26,18.30
2016,08,14,06,27,18.30
2016,08,14,06,28,18.30
2016,08,14,06,29,18.30
2016,08,14,06,30,18.30
2016,08,14,06,31,18.30
2016,08,14,06,32,18.30
2016,08,14,06,33,18.30
2016,08,14,06,34,18.30
2016,08,14,06,35,18.30
2016,08,14,06,36,18.30
2016,08,14,06,37,18.30
2016,08,14,06,38,18.30
2016,08,14,06,39,18.30
2016,08,14,06,40,18.30
2016,08,14,06,41,18.30
2016,08,14,06,42,18.40
2016,08,14,06,43,18.40
2016,08,14,06,44,18.40
2016,08,14,06,45,18.40
2016,08,14,06,46,18.50
2016,08,14,06,47,18.50
2016,08,14,06,48,18.50
2016,08,14,06,49,18.50
2016,08,14,06,50,18.60
2016,08,14,06,51,18.60
2016,08,14,06,52,18.60
2016,08,14,06,53,18.60
2016,08,14,06,54,18.60
2016,08,14,06,55,18.60
2016,08,14,06,56,18.70
2016,08,14,06,57,18.70
2016,08,14,06,58,18.70
2016,08,14,06,59,18.70
2016,08,14,07,00,18.70
2016,08,14,07,01,18.70
2016,08,14,07,02,18.80
2016,08,14,07,03,18.80
2016,08,14,07,04,18.80
2016,08,14,07,05,18.80
2016,08,14,07,06,18.90
2016,08,14,07,07,18.90
2016,08,14,07,08,18.90
2016,08,14,07,09,18.90
2016,08,14,07,10,19.00
2016,08,14,07,11,19.00
2016,08,14,07,12,19.00
2016,08,14,07,13,19.10
2016,08,14,07,14,19.10
2016,08,14,07,15,19.10
2016,08,14,07,16,19.20
2016,08,14,07,17,19.20
2016,08,14,07,18,19.20
2016,08,14,07,19,19.20
2016,08,14,07,20,19.30
2016,08,14,07,21,19.30
2016,08,14,07,22,19.30
2016,08,14,07,23,19.30
2016,08,14,07,24,19.30
2016,08,14,07,25,19.30
2016,08,14,07,26,19.40
2016,08,14,07,27,19.40
2016,08,14,07,28,19.40
2016,08,14,07,29,19.40
2016,08,14,07,30,19.40
2016,08,14,07,31,19.40
2016,08,14,07,32,19.40
2016,08,14,07,33,19.50
2016,08,14,07,34,19.50
2016,08,14,07,35,19.50
2016,08,14,07,36,19.50
2016,08,14,07,37,19.50
2016,08,14,07,38,19.60
2016,08,14,07,39,19.60
2016,08,14,07,40,19.60
2016,08,14,07,41,19.60
2016,08,14,07,42,19.60
2016,08,14,07,43,19.60
2016,08,14,07,44,19.60
2016,08,14,07,45,19.70
2016,08,14,07,46,19.70
2016,08,14,07,47,19.70
2016,08,14,07,48,19.70
2016,08,14,07,49,19.70
2016,08,14,07,50,19.70
2016,08,14,07,51,19.70
2016,08,14,07,52,19.70
2016,08,14,07,53,19.70
2016,08,14,07,54,19.70
2016,08,14,07,55,19.70
2016,08,14,07,56,19.70
2016,08,14,07,57,19.80
2016,08,14,07,58,19.80
2016,08,14,07,59,19.80
2016,08,14,08,00,19.80
2016,08,14,08,01,19.90
2016,08,14,08,02,19.90
2016,08,14,08,03,19.90
2016,08,14,08,04,20.00
2016,08,14,08,05,20.00
2016,08,14,08,06,20.00
2016,08,14,08,07,20.10
2016,08,14,08,08,20.10
2016,08,14,08,09,20.10
2016,08,14,08,10,20.10
2016,08,14,08,11,20.20
2016,08,14,08,12,20.20
2016,08,14,08,13,20.20
2016,08,14,08,14,20.20
2016,08,14,08,15,20.30
2016,08,14,08,16,20.30
2016,08,14,08,17,20.30
2016,08,14,08,18,20.30
2016,08,14,08,19,20.40
2016,08,14,08,20,20.40
2016,08,14,08,21,20.40
2016,08,14,08,22,20.50
2016,08,14,08,23,20.50
2016,08,14,08,24,20.60
2016,08,14,08,25,20.60
2016,08,14,08,26,20.60
2016,08,14,08,27,20.60
2016,08,14,08,28,20.60
2016,08,14,08,29,20.70
2016,08,14,08,30,20.70
2016,08,14,08,31,20.70
2016,08,14,08,32,20.70
2016,08,14,08,33,20.70
2016,08,14,08,34,20.70
2016,08,14,08,35,20.70
2016,08,14,08,36,20.70
2016,08,14,08,37,20.80
2016,08,14,08,38,20.80
2016,08,14,08,39,20.80
2016,08,14,08,40,20.80
2016,08,14,08,41,20.80
2016,08,14,08,42,20.80
2016,08,14,08,43,20.80
2016,08,14,08,44,20.90
2016,08,14,08,45,20.90
2016,08,14,08,46,20.90
2016,08,14,08,47,21.00
2016,08,14,08,48,21.00
2016,08,14,08,49,21.00
2016,08,14,08,50,21.00
2016,08,14,08,51,21.00
2016,08,14,08,52,21.10
2016,08,14,08,53,21.10
2016,08,14,08,54,21.10
2016,08,14,08,55,21.20
2016,08,14,08,56,21.20
2016,08,14,08,57,21.30
2016,08,14,08,58,21.30
2016,08,14,08,59,21.40
2016,08,14,09,00,21.40
2016,08,14,09,01,21.40
2016,08,14,09,02,21.40
2016,08,14,09,03,21.40
2016,08,14,09,04,21.40
2016,08,14,09,05,21.40
2016,08,14,09,06,21.50
2016,08,14,09,07,21.50
2016,08,14,09,08,21.40
2016,08,14,09,09,21.40
2016,08,14,09,10,21.40
2016,08,14,09,11,21.40
2016,08,14,09,12,21.40
2016,08,14,09,13,21.40
2016,08,14,09,14,21.30
2016,08,14,09,15,21.30
2016,08,14,09,16,21.20
2016,08,14,09,17,21.20
2016,08,14,09,18,21.30
2016,08,14,09,19,21.30
2016,08,14,09,20,21.30
2016,08,14,09,21,21.30
2016,08,14,09,22,21.20
2016,08,14,09,23,21.20
2016,08,14,09,24,21.20
2016,08,14,09,25,21.20
2016,08,14,09,26,21.20
2016,08,14,09,27,21.20
2016,08,14,09,28,21.20
2016,08,14,09,29,21.20
2016,08,14,09,30,21.30
2016,08,14,09,31,21.30
2016,08,14,09,32,21.30
2016,08,14,09,33,21.20
2016,08,14,09,34,21.20
2016,08,14,09,35,21.20
2016,08,14,09,36,21.20
2016,08,14,09,37,21.20
2016,08,14,09,38,21.20
2016,08,14,09,39,21.20
2016,08,14,09,40,21.20
2016,08,14,09,41,21.20
2016,08,14,09,42,21.30
2016,08,14,09,43,21.30
2016,08,14,09,44,21.30
2016,08,14,09,45,21.30
2016,08,14,09,46,21.30
2016,08,14,09,47,21.30
2016,08,14,09,48,21.30
2016,08,14,09,49,21.30
2016,08,14,09,50,21.30
2016,08,14,09,51,21.40
2016,08,14,09,52,21.50
2016,08,14,09,53,21.60
2016,08,14,09,54,21.60
2016,08,14,09,55,21.70
2016,08,14,09,56,21.70
2016,08,14,09,57,21.70
2016,08,14,09,58,21.70
2016,08,14,09,59,21.80
2016,08,14,10,00,21.80
2016,08,14,10,01,21.80
2016,08,14,10,02,21.80
2016,08,14,10,03,21.70
2016,08,14,10,04,21.70
2016,08,14,10,05,21.60
2016,08,14,10,06,21.60
2016,08,14,10,07,21.70
2016,08,14,10,08,21.70
2016,08,14,10,09,21.70
2016,08,14,10,10,21.70
2016,08,14,10,11,21.70
2016,08,14,10,12,21.70
2016,08,14,10,13,21.70
2016,08,14,10,14,21.70
2016,08,14,10,15,21.70
2016,08,14,10,16,21.70
2016,08,14,10,17,21.70
2016,08,14,10,18,21.80
2016,08,14,10,19,21.80
2016,08,14,10,20,21.80
2016,08,14,10,21,21.80
2016,08,14,10,22,21.80
2016,08,14,10,23,21.80
2016,08,14,10,24,21.80
2016,08,14,10,25,21.80
2016,08,14,10,26,21.90
2016,08,14,10,27,21.90
2016,08,14,10,28,22.00
2016,08,14,10,29,22.10
2016,08,14,10,30,22.00
2016,08,14,10,31,22.00
2016,08,14,10,32,22.00
2016,08,14,10,33,22.00
2016,08,14,10,34,22.10
2016,08,14,10,35,22.10
2016,08,14,10,36,22.20
2016,08,14,10,37,22.30
2016,08,14,10,38,22.30
2016,08,14,10,39,22.40
2016,08,14,10,40,22.40
2016,08,14,10,41,22.30
2016,08,14,10,42,22.40
2016,08,14,10,43,22.40
2016,08,14,10,44,22.30
2016,08,14,10,45,22.30
2016,08,14,10,46,22.30
2016,08,14,10,47,22.30
2016,08,14,10,48,22.30
2016,08,14,10,49,22.30
2016,08,14,10,50,22.40
2016,08,14,10,51,22.40
2016,08,14,10,52,22.30
2016,08,14,10,53,22.30
2016,08,14,10,54,22.30
2016,08,14,10,55,22.20
2016,08,14,10,56,22.20
2016,08,14,10,57,22.30
2016,08,14,10,58,22.30
2016,08,14,10,59,22.30
2016,08,14,11,00,22.20
2016,08,14,11,01,22.20
2016,08,14,11,02,22.20
2016,08,14,11,03,22.30
2016,08,14,11,04,22.30
2016,08,14,11,05,22.40
2016,08,14,11,06,22.50
2016,08,14,11,07,22.60
2016,08,14,11,08,22.70
2016,08,14,11,09,22.70
2016,08,14,11,10,22.70
2016,08,14,11,11,22.80
2016,08,14,11,12,22.70
2016,08,14,11,13,22.80
2016,08,14,11,14,22.80
2016,08,14,11,15,22.80
2016,08,14,11,16,22.90
2016,08,14,11,17,23.00
2016,08,14,11,18,23.00
2016,08,14,11,19,23.10
2016,08,14,11,20,23.20
2016,08,14,11,21,23.30
2016,08,14,11,22,23.30
2016,08,14,11,23,23.40
2016,08,14,11,24,23.50
2016,08,14,11,25,23.50
2016,08,14,11,26,23.60
2016,08,14,11,27,23.70
2016,08,14,11,28,23.70
2016,08,14,11,29,23.70
2016,08,14,11,30,23.80
2016,08,14,11,31,23.80
2016,08,14,11,32,23.90
2016,08,14,11,33,24.00
2016,08,14,11,34,24.00
2016,08,14,11,35,24.10
2016,08,14,11,36,24.20
2016,08,14,11,37,24.20
2016,08,14,11,38,24.20
2016,08,14,11,39,24.20
2016,08,14,11,40,24.10
2016,08,14,11,41,24.10
2016,08,14,11,42,24.00
2016,08,14,11,43,24.00
2016,08,14,11,44,23.90
2016,08,14,11,45,23.90
2016,08,14,11,46,23.90
2016,08,14,11,47,23.80
2016,08,14,11,48,23.60
2016,08,14,11,49,23.40
2016,08,14,11,50,23.30
2016,08,14,11,51,23.20
2016,08,14,11,52,23.30
2016,08,14,11,53,23.30
2016,08,14,11,54,23.30
2016,08,14,11,55,23.30
2016,08,14,11,56,23.30
2016,08,14,11,57,23.30
2016,08,14,11,58,23.30
2016,08,14,11,59,23.30
2016,08,14,12,00,23.30
2016,08,14,12,01,23.30
2016,08,14,12,02,23.20
2016,08,14,12,03,23.20
2016,08,14,12,04,23.20
2016,08,14,12,05,23.20
2016,08,14,12,06,23.20
2016,08,14,12,07,23.20
2016,08,14,12,08,23.20
2016,08,14,12,09,23.30
2016,08,14,12,10,23.30
2016,08,14,12,11,23.40
2016,08,14,12,12,23.30
2016,08,14,12,13,23.30
2016,08,14,12,14,23.30
2016,08,14,12,15,23.20
2016,08,14,12,16,23.20
2016,08,14,12,17,23.10
2016,08,14,12,18,23.00
2016,08,14,12,19,22.90
2016,08,14,12,20,22.90
2016,08,14,12,21,23.00
2016,08,14,12,22,23.00
2016,08,14,12,23,23.10
2016,08,14,12,24,23.20
2016,08,14,12,25,23.30
2016,08,14,12,26,23.40
2016,08,14,12,27,23.40
2016,08,14,12,28,23.30
2016,08,14,12,29,23.30
2016,08,14,12,30,23.30
2016,08,14,12,31,23.30
2016,08,14,12,32,23.20
2016,08,14,12,33,23.20
2016,08,14,12,34,23.30
2016,08,14,12,35,23.40
2016,08,14,12,36,23.50
2016,08,14,12,37,23.60
2016,08,14,12,38,23.70
2016,08,14,12,39,23.90
2016,08,14,12,40,24.00
2016,08,14,12,41,24.20
2016,08,14,12,42,24.30
2016,08,14,12,43,24.40
2016,08,14,12,44,24.50
2016,08,14,12,45,24.50
2016,08,14,12,46,24.60
2016,08,14,12,47,24.60
2016,08,14,12,48,24.50
2016,08,14,12,49,24.40
2016,08,14,12,50,24.30
2016,08,14,12,51,24.20
2016,08,14,12,52,24.00
2016,08,14,12,53,23.90
2016,08,14,12,54,23.80
2016,08,14,12,55,23.70
2016,08,14,12,56,23.70
2016,08,14,12,57,23.50
2016,08,14,12,58,23.40
2016,08,14,12,59,23.20
2016,08,14,13,00,23.20
2016,08,14,13,01,23.10
2016,08,14,13,02,23.10
2016,08,14,13,03,23.10
2016,08,14,13,04,23.20
2016,08,14,13,05,23.20
2016,08,14,13,06,23.10
2016,08,14,13,07,23.10
2016,08,14,13,08,23.00
2016,08,14,13,09,22.80
2016,08,14,13,10,22.70
2016,08,14,13,11,22.60
2016,08,14,13,12,22.50
2016,08,14,13,13,22.40
2016,08,14,13,14,22.30
2016,08,14,13,15,22.20
2016,08,14,13,16,22.20
2016,08,14,13,17,22.20
2016,08,14,13,18,22.30
2016,08,14,13,19,22.30
2016,08,14,13,20,22.30
2016,08,14,13,21,22.30
2016,08,14,13,22,22.30
2016,08,14,13,23,22.30
2016,08,14,13,24,22.40
2016,08,14,13,25,22.40
2016,08,14,13,26,22.50
2016,08,14,13,27,22.70
2016,08,14,13,28,22.80
2016,08,14,13,29,22.80
2016,08,14,13,30,22.90
2016,08,14,13,31,23.00
2016,08,14,13,32,23.00
2016,08,14,13,33,23.10
2016,08,14,13,34,23.20
2016,08,14,13,35,23.30
2016,08,14,13,36,23.30
2016,08,14,13,37,23.40
2016,08,14,13,38,23.40
2016,08,14,13,39,23.40
2016,08,14,13,40,23.40
2016,08,14,13,41,23.50
2016,08,14,13,42,23.60
2016,08,14,13,43,23.70
2016,08,14,13,44,23.80
2016,08,14,13,45,23.80
2016,08,14,13,46,23.90
2016,08,14,13,47,23.90
2016,08,14,13,48,23.90
2016,08,14,13,49,23.90
2016,08,14,13,50,23.70
2016,08,14,13,51,23.50
2016,08,14,13,52,23.30
2016,08,14,13,53,23.00
2016,08,14,13,54,22.80
2016,08,14,13,55,22.60
2016,08,14,13,56,22.50
2016,08,14,13,57,22.40
2016,08,14,13,58,22.40
2016,08,14,13,59,22.40
2016,08,14,14,00,22.40
2016,08,14,14,01,22.40
2016,08,14,14,02,22.40
2016,08,14,14,03,22.40
2016,08,14,14,04,22.40
2016,08,14,14,05,22.40
2016,08,14,14,06,22.40
2016,08,14,14,07,22.40
2016,08,14,14,08,22.50
2016,08,14,14,09,22.50
2016,08,14,14,10,22.50
2016,08,14,14,11,22.40
2016,08,14,14,12,22.40
2016,08,14,14,13,22.30
2016,08,14,14,14,22.20
2016,08,14,14,15,22.20
2016,08,14,14,16,22.30
2016,08,14,14,17,22.30
2016,08,14,14,18,22.30
2016,08,14,14,19,22.40
2016,08,14,14,20,22.50
2016,08,14,14,21,22.60
2016,08,14,14,22,22.70
2016,08,14,14,23,22.80
2016,08,14,14,24,22.90
2016,08,14,14,25,22.90
2016,08,14,14,26,23.00
2016,08,14,14,27,23.00
2016,08,14,14,28,23.00
2016,08,14,14,29,23.10
2016,08,14,14,30,23.10
2016,08,14,14,31,23.10
2016,08,14,14,32,23.10
2016,08,14,14,33,23.10
2016,08,14,14,34,23.20
2016,08,14,14,35,23.20
2016,08,14,14,36,23.30
2016,08,14,14,37,23.30
2016,08,14,14,38,23.30
2016,08,14,14,39,23.30
2016,08,14,14,40,23.30
2016,08,14,14,41,23.30
2016,08,14,14,42,23.30
2016,08,14,14,43,23.30
2016,08,14,14,44,23.30
2016,08,14,14,45,23.40
2016,08,14,14,46,23.40
2016,08,14,14,47,23.50
2016,08,14,14,48,23.60
2016,08,14,14,49,23.70
2016,08,14,14,50,23.80
2016,08,14,14,51,23.90
2016,08,14,14,52,24.00
2016,08,14,14,53,24.10
2016,08,14,14,54,24.20
2016,08,14,14,55,24.30
2016,08,14,14,56,24.30
2016,08,14,14,57,24.30
2016,08,14,14,58,24.20
2016,08,14,14,59,24.20
2016,08,14,15,00,24.20
2016,08,14,15,01,24.20
2016,08,14,15,02,24.20
2016,08,14,15,03,24.20
2016,08,14,15,04,24.10
2016,08,14,15,05,24.20
2016,08,14,15,06,24.20
2016,08,14,15,07,24.20
2016,08,14,15,08,24.20
2016,08,14,15,09,24.30
2016,08,14,15,10,24.40
2016,08,14,15,11,24.50
2016,08,14,15,12,24.60
2016,08,14,15,13,24.70
2016,08,14,15,14,24.80
2016,08,14,15,15,24.90
2016,08,14,15,16,25.00
2016,08,14,15,17,25.00
2016,08,14,15,18,25.00
2016,08,14,15,19,25.00
2016,08,14,15,20,25.00
2016,08,14,15,21,25.10
2016,08,14,15,22,25.10
2016,08,14,15,23,25.20
2016,08,14,15,24,25.20
2016,08,14,15,25,25.20
2016,08,14,15,26,25.20
2016,08,14,15,27,25.20
2016,08,14,15,28,25.10
2016,08,14,15,29,25.10
2016,08,14,15,30,25.10
2016,08,14,15,31,25.10
2016,08,14,15,32,25.10
2016,08,14,15,33,25.20
2016,08,14,15,34,25.30
2016,08,14,15,35,25.30
2016,08,14,15,36,25.40
2016,08,14,15,37,25.40
2016,08,14,15,38,25.40
2016,08,14,15,39,25.50
2016,08,14,15,40,25.50
2016,08,14,15,41,25.60
2016,08,14,15,42,25.70
2016,08,14,15,43,25.70
2016,08,14,15,44,25.80
2016,08,14,15,45,25.90
2016,08,14,15,46,25.90
2016,08,14,15,47,25.90
2016,08,14,15,48,25.90
2016,08,14,15,49,25.90
2016,08,14,15,50,25.80
2016,08,14,15,51,25.70
2016,08,14,15,52,25.60
2016,08,14,15,53,25.40
2016,08,14,15,54,25.30
2016,08,14,15,55,25.30
2016,08,14,15,56,25.10
2016,08,14,15,57,25.10
2016,08,14,15,58,25.00
2016,08,14,15,59,24.90
2016,08,14,16,00,24.90
2016,08,14,16,01,24.90
2016,08,14,16,02,24.90
2016,08,14,16,03,24.90
2016,08,14,16,04,24.90
2016,08,14,16,05,25.00
2016,08,14,16,06,25.10
2016,08,14,16,07,25.20
2016,08,14,16,08,25.30
2016,08,14,16,09,25.40
2016,08,14,16,10,25.40
2016,08,14,16,11,25.20
2016,08,14,16,12,25.10
2016,08,14,16,13,25.00
2016,08,14,16,14,24.80
2016,08,14,16,15,24.80
2016,08,14,16,16,24.70
2016,08,14,16,17,24.70
2016,08,14,16,18,24.70
2016,08,14,16,19,24.80
2016,08,14,16,20,24.80
2016,08,14,16,21,24.90
2016,08,14,16,22,24.90
2016,08,14,16,23,25.00
2016,08,14,16,24,25.10
2016,08,14,16,25,25.10
2016,08,14,16,26,25.00
2016,08,14,16,27,25.00
2016,08,14,16,28,24.90
2016,08,14,16,29,24.80
2016,08,14,16,30,24.70
2016,08,14,16,31,24.70
2016,08,14,16,32,24.80
2016,08,14,16,33,24.80
2016,08,14,16,34,24.90
2016,08,14,16,35,25.00
2016,08,14,16,36,25.00
2016,08,14,16,37,25.10
2016,08,14,16,38,25.20
2016,08,14,16,39,25.20
2016,08,14,16,40,25.30
2016,08,14,16,41,25.30
2016,08,14,16,42,25.30
2016,08,14,16,43,25.30
2016,08,14,16,44,25.30
2016,08,14,16,45,25.30
2016,08,14,16,46,25.30
2016,08,14,16,47,25.40
2016,08,14,16,48,25.40
2016,08,14,16,49,25.40
2016,08,14,16,50,25.40
2016,08,14,16,51,25.40
2016,08,14,16,52,25.40
2016,08,14,16,53,25.40
2016,08,14,16,54,25.50
2016,08,14,16,55,25.60
2016,08,14,16,56,25.70
2016,08,14,16,57,25.70
2016,08,14,16,58,25.80
2016,08,14,16,59,25.80
2016,08,14,17,00,25.90
2016,08,14,17,01,26.00
2016,08,14,17,02,26.00
2016,08,14,17,03,26.00
2016,08,14,17,04,26.00
2016,08,14,17,05,26.10
2016,08,14,17,06,26.10
2016,08,14,17,07,26.10
2016,08,14,17,08,26.10
2016,08,14,17,09,26.10
2016,08,14,17,10,26.00
2016,08,14,17,11,26.00
2016,08,14,17,12,26.00
2016,08,14,17,13,26.00
2016,08,14,17,14,26.00
2016,08,14,17,15,25.90
2016,08,14,17,16,25.90
2016,08,14,17,17,25.90
2016,08,14,17,18,26.00
2016,08,14,17,19,26.00